EW4727 Weather Reports


time (UTC)temp
C
wind
direction
speed
KPH
gust
KPH
rain 1hr
cm
rain 24hr
cm
rain mn
cm
humidity
%
barometer
mb
20181023085704 18 76 14.5 32.2 0.00 0.00 0.00 59 1023.6
20181023084705 18 74 12.9 24.1 0.00 0.00 0.00 59 1023.5
20181023083704 18 95 9.7 25.7 0.00 0.00 0.00 60 1023.4
20181023080704 17 91 11.3 29.0 0.00 0.00 0.00 58 1023.2
20181023075704 17 90 8.0 19.3 0.00 0.00 0.00 58 1023.0
20181023074704 17 105 8.0 25.7 0.00 0.00 0.00 59 1022.8
20181023073704 17 83 11.3 32.2 0.00 0.00 0.00 59 1022.8
20181023072705 17 74 11.3 24.1 0.00 0.00 0.00 59 1022.6
20181023071709 17 72 11.3 29.0 0.00 0.00 0.00 59 1022.4
20181023070704 17 78 14.5 32.2 0.00 0.00 0.00 59 1022.3
20181023065704 17 74 9.7 32.2 0.00 0.00 0.00 59 1022.3
20181023062704 17 96 11.3 32.2 0.00 0.00 0.00 59 1021.9
20181023061703 17 78 9.7 20.9 0.00 0.00 0.00 58 1021.8
20181023060704 17 89 12.9 22.5 0.00 0.00 0.00 58 1021.8
20181023055706 17 108 9.7 22.5 0.00 0.00 0.00 58 1021.5
20181023054705 17 89 8.0 20.9 0.00 0.00 0.00 57 1021.5
20181023053704 17 88 11.3 25.7 0.00 0.00 0.00 57 1021.5
20181023052704 17 85 11.3 25.7 0.00 0.00 0.00 57 1021.6
20181023051705 17 71 9.7 24.1 0.00 0.00 0.00 57 1021.5
20181023050705 17 90 9.7 22.5 0.00 0.00 0.00 56 1021.3
20181023045715 17 73 14.5 25.7 0.00 0.00 0.00 56 1021.4
20181023044704 17 83 9.7 25.7 0.00 0.00 0.00 56 1021.5
20181023043709 17 79 9.7 19.3 0.00 0.00 0.00 56 1021.4
20181023042704 17 93 11.3 24.1 0.00 0.00 0.00 55 1021.2
20181023041704 17 106 12.9 25.7 0.00 0.00 0.00 55 1021.1
20181023040705 17 91 11.3 29.0 0.00 0.00 0.00 55 1021.0
20181023035705 18 119 11.3 29.0 0.00 0.00 0.00 55 1020.9
20181023034707 18 94 6.4 32.2 0.00 0.00 0.00 54 1021.0
20181023033704 18 108 14.5 37.0 0.00 0.00 0.00 54 1021.0
20181023031704 18 97 12.9 27.4 0.00 0.00 0.00 53 1021.1
20181023030705 18 97 14.5 27.4 0.00 0.00 0.00 52 1021.1
20181023025704 18 81 12.9 20.9 0.00 0.00 0.00 52 1021.2
20181023024709 18 80 9.7 20.9 0.00 0.00 0.00 51 1021.2
20181023023705 18 71 9.7 24.1 0.00 0.00 0.00 50 1021.2
20181023022705 18 66 6.4 24.1 0.00 0.00 0.00 50 1021.3
20181023021705 18 83 11.3 32.2 0.00 0.00 0.00 50 1021.3
20181023020704 18 67 9.7 27.4 0.00 0.00 0.00 49 1021.0
20181023015715 18 102 14.5 32.2 0.00 0.00 0.00 48 1021.1
20181023014712 19 101 9.7 32.2 0.00 0.00 0.00 48 1021.2
20181023013704 19 104 16.1 25.7 0.00 0.00 0.00 47 1021.1
20181023012705 19 95 11.3 40.2 0.00 0.00 0.00 46 1020.9
20181023011704 19 100 11.3 37.0 0.00 0.00 0.00 46 1020.9
20181023010705 19 96 12.9 35.4 0.00 0.00 0.00 45 1021.1
20181023005704 20 86 16.1 33.8 0.00 0.00 0.00 44 1021.1
20181023004705 20 104 19.3 29.0 0.00 0.00 0.00 44 1021.0
20181023003704 20 102 9.7 32.2 0.00 0.00 0.00 44 1021.1
20181023001709 20 84 14.5 27.4 0.00 0.00 0.00 45 1021.2
20181023000704 20 103 11.3 27.4 0.00 0.00 0.00 45 1021.3
20181022235707 20 77 14.5 32.2 0.00 0.00 0.00 46 1021.2
20181022234705 20 83 14.5 32.2 0.00 0.00 0.00 47 1021.4
20181022233704 20 91 12.9 25.7 0.00 0.00 0.00 49 1021.5
20181022232704 20 109 9.7 25.7 0.00 0.00 0.00 50 1021.5
20181022231705 20 111 14.5 32.2 0.00 0.00 0.00 52 1021.5
20181022230705 20 93 9.7 25.7 0.00 0.00 0.00 53 1021.3
20181022224713 21 83 8.0 22.5 0.00 0.00 0.00 55 1021.6
20181022223705 20 93 8.0 19.3 0.00 0.00 0.00 55 1021.7
20181022222704 20 118 3.2 12.9 0.00 0.00 0.00 55 1021.8
20181022221706 20 132 0.0 11.3 0.00 0.00 0.00 55 1021.8
20181022220705 21 77 3.2 12.9 0.00 0.00 0.00 55 1021.6
20181022215704 21 74 4.8 12.9 0.00 0.00 0.00 55 1021.5
20181022214704 21 85 3.2 14.5 0.00 0.00 0.00 56 1021.5
20181022213704 21 55 1.6 9.7 0.00 0.00 0.00 58 1021.4
20181022212705 21 69 0.0 12.9 0.00 0.00 0.00 60 1021.3
20181022210714 21 71 3.2 8.0 0.00 0.00 0.00 63 1021.2
20181022204704 21 65 4.8 12.9 0.00 0.00 0.00 66 1021.1
20181022202705 20 55 1.6 8.0 0.00 0.00 0.00 79 1020.8
20181022201704 20 58 1.6 12.9 0.00 0.00 0.00 79 1020.7
20181022200705 20 55 4.8 11.3 0.00 0.00 0.00 79 1020.7
20181022195704 20 52 0.0 8.0 0.00 0.00 0.00 79 1020.7
20181022194705 20 51 1.6 8.0 0.00 0.00 0.00 79 1020.7
20181022193705 20 36 0.0 4.8 0.00 0.00 0.00 79 1020.7
20181022190704 21 34 0.0 0.0 0.00 0.00 0.00 77 1020.7
20181022185705 21 34 0.0 0.0 0.00 0.00 0.00 77 1020.7
20181022184705 21 34 0.0 0.0 0.00 0.00 0.00 76 1020.6
20181022183705 21 34 0.0 0.0 0.00 0.00 0.00 75 1020.6
20181022182704 21 34 0.0 0.0 0.00 0.00 0.00 75 1020.6
20181022181704 21 34 0.0 1.6 0.00 0.00 0.00 76 1020.6
20181022180705 21 34 0.0 0.0 0.00 0.00 0.00 74 1020.6
20181022175704 22 34 0.0 0.0 0.00 0.00 0.00 73 1020.6
20181022174704 22 34 0.0 0.0 0.00 0.00 0.00 71 1020.5
20181022173705 22 34 0.0 14.5 0.00 0.00 0.00 70 1020.3
20181022170704 23 0 3.2 12.9 0.00 0.00 0.00 65 1020.1
20181022165709 24 28 1.6 9.7 0.00 0.00 0.00 64 1020.2
20181022164704 23 46 1.6 14.5 0.00 0.00 0.00 65 1020.1
20181022163704 23 5 1.6 12.9 0.00 0.00 0.00 65 1020.0
20181022162704 23 355 1.6 12.9 0.00 0.00 0.00 72 1020.0
20181022161703 22 319 4.8 12.9 0.00 0.00 0.00 72 1020.0
20181022145704 23 325 1.6 9.7 0.00 0.00 0.00 70 1020.0
20181022143712 25 328 0.0 8.0 0.00 0.00 0.00 65 1019.8
20181022142704 25 328 4.8 9.7 0.00 0.00 0.00 61 1019.9
20181022141705 26 323 4.8 11.3 0.00 0.00 0.00 59 1020.0
20181022140705 27 167 1.6 8.0 0.00 0.00 0.00 46 1020.1
20181022135705 26 123 0.0 11.3 0.00 0.00 0.00 44 1020.3
20181022134704 26 109 6.4 14.5 0.00 0.00 0.00 44 1020.2
20181022133704 26 104 0.0 16.1 0.00 0.00 0.00 44 1020.3
20181022132709 26 116 4.8 19.3 0.00 0.00 0.00 44 1020.5
20181022131704 26 70 3.2 19.3 0.00 0.00 0.00 44 1020.6
20181022130704 26 74 3.2 20.9 0.00 0.00 0.00 45 1020.7
20181022124704 26 73 4.8 19.3 0.00 0.00 0.00 47 1020.7
20181022123704 25 68 8.0 22.5 0.00 0.00 0.00 47 1020.8
20181022122704 25 82 4.8 22.5 0.00 0.00 0.00 48 1021.0
20181022121705 25 113 4.8 25.7 0.00 0.00 0.00 50 1021.1
20181022120704 25 69 8.0 19.3 0.00 0.00 0.00 50 1021.4
20181022115704 25 90 8.0 19.3 0.00 0.00 0.00 52 1021.4
20181022114704 24 79 8.0 25.7 0.00 0.00 0.00 53 1021.4
20181022113704 24 106 9.7 22.5 0.00 0.00 0.00 55 1021.5
20181022112705 24 92 9.7 22.5 0.00 0.00 0.00 58 1021.5
20181022110708 23 96 3.2 27.4 0.00 0.00 0.00 63 1021.4
20181022105704 23 108 9.7 19.3 0.00 0.00 0.00 65 1021.7
20181022104704 23 72 8.0 22.5 0.00 0.00 0.00 67 1021.8
20181022103704 23 92 8.0 14.5 0.00 0.00 0.00 68 1021.9
20181022101704 22 96 8.0 22.5 0.00 0.00 0.00 70 1021.8
20181022100704 22 75 9.7 22.5 0.00 0.00 0.00 71 1021.5
20181022095704 22 78 9.7 19.3 0.00 0.00 0.00 72 1021.7
20181022094704 22 95 9.7 19.3 0.00 0.00 0.00 72 1021.6
20181022093704 21 100 9.7 20.9 0.00 0.00 0.00 73 1021.6
20181022091711 21 55 1.6 16.1 0.00 0.00 0.00 76 1021.6
20181022090704 21 58 3.2 11.3 0.00 0.00 0.00 78 1021.6